This demonstration page uses our WeatherBlox Daily Observations layout. Learn more.

Left ArrowRight Arrow

39.01783, -85.05884

Hourly Observations for January 3, 2020

Temp ( °F °C ) Dew Point ( °F °C ) Humidity (%) Winds ( mph kmh ) Pressure ( in mb ) Visibility ( mi km ) Precip ( " mm )
12:52 am 00:52 Cloudy with Light Rain 50 10 49 9.4 96 96 SSW 9 15 29.72 1006 2 2 0.02 0.51
1:14 am 01:14 Cloudy with Light Rain 51 10.6 49 9.4 92 92 SSW 10 17 29.72 1006 3 4 0.04 1.02
1:38 am 01:38 Cloudy with Light Rain 51 10.6 50 10 96 96 S 10 17 29.73 1007 8 13 0.05 1.27
1:52 am 01:52 Cloudy with Light Rain 51 10.6 50 10 96 96 SSW 13 20 29.70 1006 9 14 0.05 1.27
2:52 am 02:52 Cloudy with Light Rain 52 11.1 49 9.4 89 89 SW 10 17 29.70 1006 10 16 0.02 0.51
3:52 am 03:52 Cloudy with Light Rain 51 10.6 49 9.4 92 92 WSW 6 9 29.73 1007 6 10 0.03 0.76
4:52 am 04:52 Cloudy with Rain 51 10.6 49 9.4 92 92 SSW 5 7 29.72 1006 4 6 0.06 1.52
5:26 am 05:26 Cloudy with Light Rain 51 10.6 49 9.4 92 92 SSW 6 9 29.75 1007 4 6 0.05 1.27
5:52 am 05:52 Cloudy with Light Rain 51 10.6 49 9.4 92 92 SSW 6 9 29.75 1007 6 10 0.07 1.78
6:52 am 06:52 Cloudy with Light Rain 51 10.6 49 9.4 92 92 SSW 8 13 29.74 1007 5 8 0.04 1.02
7:36 am 07:36 Cloudy with Light Rain 50 10 49 9.4 96 96 SW 7 11 29.79 1009 2 3 0.02 0.51
7:52 am 07:52 Cloudy with Light Rain 50 10 49 9.4 96 96 SSW 6 9 29.78 1008 2 3 0.03 0.76
8:02 am 08:02 Cloudy with Light Rain 50 10 49 9.4 96 96 SSW 6 9 29.79 1009 2 3 0.01 0.25
8:31 am 08:31 Cloudy with Light Rain 51 10.6 49 9.4 92 92 SW 6 9 29.80 1009 3 4 0.04 1.02
8:52 am 08:52 Cloudy with Light Rain 51 10.6 49 9.4 92 92 S 5 7 29.78 1008 3 4 0.06 1.52
9:14 am 09:14 Cloudy with Mist and Fog 51 10.6 49 9.4 92 92 S 6 9 29.78 1008 3 4 0.00 0.00
9:52 am 09:52 Cloudy with Mist and Fog 51 10.6 49 9.4 92 92 S 7 11 29.79 1009 3 4 0.00 0.00
10:41 am 10:41 Cloudy with Light Rain 51 10.6 49 9.4 92 92 SW 6 9 29.82 1010 1 2 0.00 0.00
10:52 am 10:52 Cloudy with Light Rain 51 10.6 50 10 96 96 SSW 7 11 29.79 1009 1 2 0.00 0.00
11:52 am 11:52 Cloudy with Light Rain 52 11.1 50 10 93 93 SSW 8 13 29.77 1008 1 2 0.01 0.25
12:52 pm 12:52 Cloudy with Mist and Fog 52 11.1 50 10 93 93 SW 7 11 29.74 1007 1 2 0.00 0.00
1:52 pm 13:52 Cloudy with Light Rain 52 11.1 50 10 93 93 SSW 6 9 29.73 1007 1 2 0.02 0.51
2:33 pm 14:33 Cloudy with Light Rain 52 11.1 51 10.6 97 97 S 6 9 29.73 1007 1 2 0.03 0.76
2:52 pm 14:52 Cloudy with Light Rain 52 11.1 50 10 93 93 S 6 9 29.71 1006 1 2 0.04 1.02
3:52 pm 15:52 Cloudy with Light Rain 53 11.7 51 10.6 93 93 SSW 5 7 29.72 1007 1 2 0.01 0.25
3:55 pm 15:55 Cloudy with Light Rain 52 11.1 51 10.6 97 97 SSW 5 7 29.74 1007 8 13 0.00 0.00
4:42 pm 16:42 Cloudy with Light Rain 52 11.1 51 10.6 97 97 Calm 29.74 1007 2 3 0.02 0.51
4:52 pm 16:52 Cloudy with Light Rain 52 11.1 50 10 93 93 W 3 6 29.73 1007 2 3 0.02 0.51
5:52 pm 17:52 Cloudy with Light Rain 52 11.1 50 10 93 93 WNW 5 7 29.73 1007 2 3 0.07 1.78
5:56 pm 17:56 Cloudy with Light Rain 52 11.1 50 10 93 93 NW 5 7 29.75 1007 2 3 0.01 0.25
6:07 pm 18:07 Cloudy with Rain 51 10.6 49 9.4 92 92 N 12 19 29.76 1008 1 2 0.02 0.51
6:13 pm 18:13 Cloudy with Rain 50 10 48 8.9 93 93 N 10 17 29.76 1008 4 6 0.03 0.76
6:21 pm 18:21 Cloudy with Light Rain 50 10 48 8.9 93 93 NNW 10 17 29.76 1008 4 6 0.04 1.02
6:25 pm 18:25 Cloudy with Light Rain 50 10 48 8.9 93 93 NNW 10 17 29.76 1008 4 6 0.04 1.02
6:52 pm 18:52 Cloudy with Light Rain 50 10 47 8.3 89 89 NNW 9 15 29.75 1007 7 11 0.05 1.27
7:04 pm 19:04 Cloudy with Light Rain 49 9.4 47 8.3 93 93 N 10 17 29.76 1008 7 11 0.00 0.00
7:47 pm 19:47 Cloudy with Light Rain 48 9 46 8 94 94 N 8 13 29.75 1008 7 11 0.00 0.00
7:52 pm 19:52 Cloudy with Light Rain 49 9.4 46 7.8 90 90 N 8 13 29.74 1007 8 13 0.00 0.00
8:13 pm 20:13 Cloudy with Light Rain 48 8.9 46 7.8 93 93 NNW 10 17 29.77 1008 5 8 0.00 0.00
8:52 pm 20:52 Cloudy with Light Rain 48 8.9 46 7.8 93 93 NW 10 17 29.77 1008 4 6 0.04 1.02
9:38 pm 21:38 Cloudy with Light Rain 48 8.9 45 7.2 89 89 N 7 11 29.78 1009 7 11 0.03 0.76
9:45 pm 21:45 Cloudy with Light Rain 48 8.9 45 7.2 89 89 NNW 6 9 29.78 1009 7 11 0.03 0.76
9:52 pm 21:52 Cloudy with Light Rain 48 8.9 45 7.2 89 89 N 7 11 29.75 1007 6 10 0.03 0.76
10:19 pm 22:19 Cloudy with Mist and Fog 47 8.3 46 7.8 97 97 NNW 3 6 29.79 1009 5 8 0.01 0.25
10:52 pm 22:52 Cloudy with Mist and Fog 47 8.3 45 7.2 93 93 WNW 6 9 29.78 1008 4 6 0.01 0.25
11:12 pm 23:12 Cloudy with Mist and Fog 47 8.3 45 7.2 93 93 WNW 5 7 29.80 1009 5 8 0.00 0.00
11:52 pm 23:52 Cloudy with Mist and Fog 47 8.3 45 7.2 93 93 WNW 6 9 29.78 1008 5 8 0.00 0.00

Powered by AerisWeather